Погода в Алупке

Россия / Республика Крым     44°25′16″N   34°03′12″E
темп.,
°C
ветер,
м/с
пор.,
м/с
влажн.,
%
обл.,
%
осадки,
мм/ч
давл.,
гПа
погр.,
м
20 января, ср
ср2000:00−10ссз229569 0.0 102473
03:00−10ссз229469 0.0 102465
06:00−10ссз12882 0.0 102438
09:00−7всв028320 0.0 102447
12:00−3всв128788 0.9 1025229
15:00−2ююз139494 2.3 1023358
18:00−3вюв139797 0.9 1024103
21:00−3в129598 1.4 102487
21 января, чт
чт2100:00−3юв2297100 0.8 102586
03:00−3вюв119695 1.2 102435
06:00−1вюв129693 0.4 102552
09:00−1в339792 1.1 1025114
12:00+2юв229589 0.6 1026201
15:00+2юз249579 0.7 1025298
18:00+1юз229660 0.0 102673
21:00+2юз469877 0.1 1026264
22 января, пт
пт2200:00+2ююз359798 0.1 1026236
03:00+1ююз349789 0.1 1025168
06:00+1ю239576 0.0 102590
09:00+2ю239587 0.0 1025104
12:00+4ю369387 0.0 1024569
15:00+3ю269482 0.0 1023320
18:00+2ю239488 0.0 102265
21:00+3юв239394 0.2 102369
23 января, сб
сб2300:00+3вюв339198 0.1 102176
03:00+3юв238583 0.1 102145
06:00+3юв238081 0.0 102040
09:00+3юв228570 0.0 102044
12:00+5ю258682 0.0 1020234
15:00+5ююз138889 0.0 101898
18:00+4юв238369 0.0 101832
21:00+4вюв237950 0.0 101834
24 января, вс
вс2400:00+4вюв34762 0.0 101747
03:00+3вюв347336 0.0 101650
06:00+4в3469100 0.0 101538
09:00+4вюв3478100 0.0 101574
12:00+6вюв3472100 0.0 1014109
15:00+7ююз398097 0.0 1013749
18:00+5ю2691100 0.4 1013323
21:00+5ю2693100 1.7 1013331